TimeCDT,TemperatureF,Dew PointF,Humidity,Sea Level PressureIn,VisibilityMPH,Wind Direction,Wind SpeedMPH,Gust SpeedMPH,PrecipitationIn,Events,Conditions,WindDirDegrees,DateUTC
12:15 AM,80.1,59.9,50,29.68,10.0,South,19.6,25.3,N/A,,Clear,190,2013-05-28 05:15:00
12:35 AM,79.2,61.0,54,29.69,10.0,South,17.3,-,N/A,,Clear,190,2013-05-28 05:35:00
12:55 AM,78.8,62.2,57,29.69,10.0,South,18.4,-,N/A,,Clear,190,2013-05-28 05:55:00
1:15 AM,79.2,63.3,58,29.69,10.0,SSW,20.7,29.9,N/A,,Clear,200,2013-05-28 06:15:00
1:35 AM,78.4,63.7,60,29.69,10.0,South,21.9,27.6,N/A,,Clear,190,2013-05-28 06:35:00
1:55 AM,77.9,64.0,62,29.69,10.0,SSW,18.4,24.2,N/A,,Clear,200,2013-05-28 06:55:00
2:15 AM,76.8,64.0,65,29.68,10.0,South,17.3,24.2,N/A,,Clear,190,2013-05-28 07:15:00
2:35 AM,76.3,64.4,67,29.69,10.0,SSW,18.4,-,N/A,,Clear,200,2013-05-28 07:35:00
2:55 AM,76.1,64.0,66,29.68,10.0,SSW,17.3,-,N/A,,Clear,200,2013-05-28 07:55:00
3:15 AM,75.6,63.9,67,29.68,10.0,SSW,17.3,24.2,N/A,,Clear,210,2013-05-28 08:15:00
3:35 AM,74.7,63.5,68,29.68,10.0,SSW,17.3,-,N/A,,Clear,210,2013-05-28 08:35:00
3:55 AM,74.3,63.5,69,29.68,10.0,SSW,16.1,23.0,N/A,,Clear,210,2013-05-28 08:55:00
4:15 AM,73.6,63.5,71,29.69,10.0,SSW,16.1,-,N/A,,Clear,210,2013-05-28 09:15:00
4:35 AM,72.5,63.3,73,29.69,10.0,SSW,15.0,-,N/A,,Clear,210,2013-05-28 09:35:00
4:55 AM,71.8,63.1,74,29.69,10.0,SSW,15.0,-,N/A,,Clear,200,2013-05-28 09:55:00
5:15 AM,71.1,63.0,75,29.70,10.0,SW,9.2,-,N/A,,Clear,220,2013-05-28 10:15:00
5:35 AM,69.6,62.6,78,29.70,10.0,SSW,11.5,-,N/A,,Clear,210,2013-05-28 10:35:00
5:55 AM,68.5,62.2,80,29.70,10.0,SSW,10.4,-,N/A,,Clear,210,2013-05-28 10:55:00
6:15 AM,67.5,62.1,83,29.70,10.0,SSW,11.5,-,N/A,,Clear,210,2013-05-28 11:15:00
6:35 AM,66.2,61.9,86,29.70,10.0,SSW,10.4,-,N/A,,Clear,200,2013-05-28 11:35:00
6:55 AM,65.3,61.9,89,29.70,7.0,South,10.4,-,N/A,,Clear,190,2013-05-28 11:55:00
7:15 AM,66.2,62.6,88,29.70,10.0,SSW,10.4,-,N/A,,Clear,200,2013-05-28 12:15:00
7:35 AM,68.2,63.0,83,29.70,10.0,SSW,12.7,-,N/A,,Clear,200,2013-05-28 12:35:00
7:55 AM,70.2,63.3,79,29.70,10.0,SSW,16.1,-,N/A,,Clear,210,2013-05-28 12:55:00
8:15 AM,72.5,63.0,72,29.71,10.0,SW,18.4,23.0,N/A,,Clear,220,2013-05-28 13:15:00
8:35 AM,74.3,62.6,67,29.71,10.0,SW,20.7,26.5,N/A,,Clear,220,2013-05-28 13:35:00
8:55 AM,75.9,61.9,62,29.71,10.0,SSW,20.7,-,N/A,,Clear,210,2013-05-28 13:55:00
9:15 AM,77.9,61.0,56,29.71,10.0,SW,13.8,-,N/A,,Clear,230,2013-05-28 14:15:00
9:35 AM,80.8,59.9,49,29.72,10.0,West,15.0,20.7,N/A,,Clear,260,2013-05-28 14:35:00
9:55 AM,80.1,59.4,49,29.72,10.0,West,13.8,-,N/A,,Clear,260,2013-05-28 14:55:00
10:15 AM,82.4,57.9,43,29.72,10.0,West,12.7,-,N/A,,Clear,260,2013-05-28 15:15:00
10:35 AM,82.2,54.9,39,29.72,10.0,WSW,9.2,-,N/A,,Clear,240,2013-05-28 15:35:00
10:55 AM,84.4,51.8,32,29.72,10.0,SW,11.5,-,N/A,,Clear,230,2013-05-28 15:55:00
11:15 AM,86.4,49.6,28,29.72,10.0,West,8.1,-,N/A,,Clear,280,2013-05-28 16:15:00
11:35 AM,87.4,46.9,24,29.71,10.0,NNW,4.6,-,N/A,,Clear,340,2013-05-28 16:35:00
11:55 AM,88.7,44.4,21,29.71,10.0,WSW,4.6,-,N/A,,Clear,240,2013-05-28 16:55:00
12:15 PM,89.8,42.6,19,29.71,10.0,West,4.6,-,N/A,,Clear,270,2013-05-28 17:15:00
12:35 PM,90.9,41.7,18,29.70,10.0,WSW,13.8,24.2,N/A,,Clear,250,2013-05-28 17:35:00
12:55 PM,93.6,38.7,15,29.69,10.0,South,10.4,18.4,N/A,,Clear,170,2013-05-28 17:55:00
1:55 PM,96.4,36.1,12,29.68,10.0,SW,11.5,21.9,N/A,,Clear,220,2013-05-28 18:55:00
2:15 PM,96.1,54.9,25,29.67,10.0,South,26.5,32.2,N/A,,Clear,170,2013-05-28 19:15:00
2:35 PM,94.1,54.1,26,29.66,10.0,South,28.8,39.1,N/A,,Scattered Clouds,180,2013-05-28 19:35:00
2:55 PM,90.0,52.3,28,29.64,10.0,South,29.9,38.0,N/A,,Scattered Clouds,170,2013-05-28 19:55:00
3:15 PM,94.1,53.6,25,29.64,7.0,South,31.1,39.1,N/A,,Clear,180,2013-05-28 20:15:00
3:35 PM,95.2,52.9,24,29.62,10.0,South,27.6,39.1,N/A,,Clear,170,2013-05-28 20:35:00
3:55 PM,92.7,51.4,25,29.62,7.0,SSW,25.3,36.8,N/A,,Clear,200,2013-05-28 20:55:00
4:15 PM,92.3,46.9,21,29.61,10.0,South,23.0,32.2,N/A,,Clear,180,2013-05-28 21:15:00
4:35 PM,91.4,49.6,24,29.60,10.0,South,24.2,34.5,N/A,,Scattered Clouds,190,2013-05-28 21:35:00
4:55 PM,91.4,45.5,20,29.60,10.0,South,23.0,35.7,N/A,,Scattered Clouds,190,2013-05-28 21:55:00
5:15 PM,91.6,45.3,20,29.60,10.0,South,26.5,33.4,N/A,,Clear,180,2013-05-28 22:15:00
5:35 PM,91.4,44.6,20,29.60,7.0,South,28.8,38.0,N/A,,Clear,190,2013-05-28 22:35:00
5:55 PM,89.4,39.0,17,29.62,5.0,SSW,40.3,50.6,N/A,,Clear,210,2013-05-28 22:55:00
6:15 PM,66.7,55.6,67,29.68,1.8,SSW,34.5,56.4,0.03,,Mostly Cloudy,200,2013-05-28 23:15:00
6:35 PM,73.2,54.0,51,29.66,10.0,WSW,16.1,21.9,0.11,,Mostly Cloudy,250,2013-05-28 23:35:00
6:55 PM,74.5,54.9,50,29.68,10.0,West,10.4,26.5,0.15,,Scattered Clouds,260,2013-05-28 23:55:00
7:15 PM,74.7,48.9,40,29.66,10.0,West,19.6,28.8,N/A,,Clear,270,2013-05-29 00:15:00
7:35 PM,74.8,47.1,37,29.64,10.0,West,15.0,25.3,N/A,,Clear,270,2013-05-29 00:35:00
7:55 PM,78.3,43.7,29,29.64,10.0,WNW,11.5,19.6,N/A,,Clear,290,2013-05-29 00:55:00
8:15 PM,76.6,48.0,36,29.64,10.0,South,6.9,-,N/A,,Clear,180,2013-05-29 01:15:00
8:35 PM,72.1,53.6,52,29.64,10.0,SE,8.1,-,N/A,,Clear,130,2013-05-29 01:35:00
8:55 PM,72.0,53.6,52,29.66,10.0,SE,9.2,-,N/A,,Clear,140,2013-05-29 01:55:00
9:15 PM,73.4,54.9,52,29.66,10.0,SE,12.7,18.4,N/A,,Clear,130,2013-05-29 02:15:00
9:35 PM,73.4,62.1,68,29.67,10.0,SE,18.4,-,N/A,,Clear,140,2013-05-29 02:35:00
9:55 PM,72.9,61.7,68,29.68,10.0,SE,19.6,-,N/A,,Clear,140,2013-05-29 02:55:00
10:15 PM,72.1,61.3,69,29.69,10.0,SE,19.6,-,N/A,,Clear,130,2013-05-29 03:15:00
10:35 PM,71.8,61.3,70,29.70,10.0,SE,16.1,24.2,N/A,,Clear,130,2013-05-29 03:35:00
10:55 PM,70.7,61.2,72,29.69,10.0,ESE,13.8,20.7,N/A,,Clear,120,2013-05-29 03:55:00
11:15 PM,70.3,61.2,73,29.69,10.0,SE,15.0,-,N/A,,Clear,130,2013-05-29 04:15:00
11:35 PM,72.1,60.6,67,29.69,10.0,SE,19.6,26.5,N/A,,Clear,140,2013-05-29 04:35:00
11:55 PM,72.0,60.3,67,29.68,10.0,SE,16.1,-,N/A,,Clear,140,2013-05-29 04:55:00